Regional Weather Roundup
Issued by NWS

Home | Current Version | Previous Version | Graphics & Text | Print | Product List | Glossary Off
Versions: 1 2 3 4 5 6 7 8 9 10 11 12 13 14 15 16 17 18 19 20 21 22 23 24 25 26 27 28 29 30 31 32 33 34 35 36 37 38 39 40 41 42 43 44 45 46 47 48 49 50

000
ASUS43 KMPX 281201
RWRMN
WEATHER ROUNDUP FOR MINNESOTA
NATIONAL WEATHER SERVICE TWIN CITIES/CHANHASSEN MN
700 AM CDT THU JUL 28 2016


NOTE: "FAIR" INDICATES FEW OR NO CLOUDS BELOW 12,000 FEET WITH NO
SIGNIFICANT WEATHER AND/OR OBSTRUCTIONS TO VISIBILITY. N/A MEANS
CURRENT SKY AND/OR WEATHER CONDITIONS ARE NOT AVAILABLE.

MNZ060>063-068>070-281300-
   Twin Cities Metro

CITY           SKY/WX    TMP DP  RH WIND       PRES   REMARKS
TWIN CITIES    CLOUDY    66  62  87 N9        30.01R
6HR MIN TEMP:  65; 6HR MAX TEMP:  68;

ST PAUL        CLOUDY    66  62  87 N7        30.01R
CRYSTAL        CLOUDY    64  59  83 NE8       30.01R
BLAINE         CLOUDY    64  63  94 N6        30.02R FOG
LAKEVILLE      CLOUDY    64  64 100 N6        30.00R
EDEN PRAIRIE   CLOUDY    66  62  87 N6        30.00R
6HR MIN TEMP:  66; 6HR MAX TEMP:  68;

LAKEVILLE      CLOUDY    64  64 100 N6        30.00R
SOUTH ST PAUL  CLOUDY    66  63  88 N7        30.00R
LAKE ELMO      CLOUDY    64  63  94 CALM      30.02R
$$
MNZ001>005-007-008-013>017-022>024-027-028-281300-
   Northwest Minnesota

CITY           SKY/WX    TMP DP  RH WIND       PRES   REMARKS
HALLOCK        CLEAR     55  54  94 CALM      30.14S
ROSEAU         CLEAR     54  48  82 N5        30.14S
WARROAD        CLEAR     55  52  88 N7        30.14S
THIEF RVR FALL CLOUDY    58  54  86 NE13      30.13R
CROOKSTON      CLEAR     59  57  94 NE5       30.12R
FOSSTON        PTCLDY    59  55  88 NE3       30.12R
DETROIT LAKES  PTCLDY    64  61  88 CALM      30.10R
MOORHEAD       MOCLDY    63  61  94 NW5       30.09R
PARK RAPIDS    MOCLDY    61  59  93 NW5       30.10R
MAHNOMEN       CLOUDY    61  59  93 N5        30.10R
$$
MNZ006-009>011-018-025>026-281300-
   North Central Minnesota

CITY           SKY/WX    TMP DP  RH WIND       PRES   REMARKS
BAUDETTE       SUNNY     56  53  90 N5        30.13R
FLAG ISLAND    CLOUDY    63  54  72 NE8       30.13S
INTL FALLS     SUNNY     60  54  80 NE5       30.11R
6HR MIN TEMP:  55; 6HR MAX TEMP:  63;

WASKISH        CLEAR     55  54  94 E6        30.11S
BIG FORK       SUNNY     54  52  94 CALM      30.11R
LONGVILLE      MOCLDY    61  61 100 CALM      30.09R
GRAND RAPIDS   FOG       59  59 100 N3        30.11R VSB<1/4
CRANE LAKE     SUNNY     46  46 100 CALM      30.12S
ORR            SUNNY     52  48  87 CALM      30.08R
COOK           SUNNY     52  52 100 CALM      30.10R
WALKER         CLOUDY    60  58  92 CALM      30.10R
$$
MNZ012-019>021-037-281300-
   Northeast Minnesota

CITY           SKY/WX    TMP DP  RH WIND       PRES   REMARKS
DULUTH         MOSUNNY   59  54  83 N3        30.08R
6HR MIN TEMP:  56; 6HR MAX TEMP:  60;

ELY            FOG       55  55 100 CALM      30.10R VSB<1/4
HIBBING        SUNNY     54  54 100 CALM      30.09R
EVELETH        SUNNY     55  54  99 CALM      30.10R
DULUTH HARBOR  SUNNY     64  59  82 N8        30.07R
TWO HARBORS    SUNNY     63  55  77 N6        30.05F
SILVER BAY     SUNNY     57  54  88 CALM      30.06S
GRAND MARAIS     N/A     65  50  58 NE7       30.08R
$$
MNZ029>031-032-039>041-046>048-054>057-064-281300-
   West Central Minnesota

CITY           SKY/WX    TMP DP  RH WIND       PRES   REMARKS
FERGUS FALLS   MOCLDY    63  63 100 CALM      30.09R
WHEATON        CLOUDY    63  63 100 CALM      30.10R
MORRIS         CLEAR     61  61 100 CALM      30.07R FOG
ALEXANDRIA     PTCLDY    63  60  90 NE5       30.09R
ELBOW LAKE     FAIR      64  62  93 NE7       30.08R
WADENA         MOCLDY    59  57  94 CALM      30.08R FOG
GLENWOOD         N/A     63  61  94 NE8       30.08R
APPLETON       MOCLDY    63  59  88 CALM      30.07R
BENSON         MOCLDY    63  57  82 NE3       30.07R
ORTONVILLE     CLOUDY    63  61  94 CALM      30.08R
MADISON        CLOUDY    64  63  94 N5        30.07R
WILLMAR        FAIR      63  61  94 N6        30.07R
$$
MNZ033>034-036-042>043-049>051-058-059-281300-
   Central Minnesota

CITY           SKY/WX    TMP DP  RH WIND       PRES   REMARKS
ST CLOUD       MOCLDY    59  58  96 N6        30.05R
6HR MIN TEMP:  58; 6HR MAX TEMP:  62;

SAUK CENTRE    FAIR      61  59  93 N6        30.07R
PAYNESVILLE    MOCLDY    60  60 100 N5        30.06R
PINE RIVER     MOCLDY    59  59 100 CALM      30.12R
BRAINERD       PTCLDY    61  60  97 NE3       30.07S
STAPLES        PTCLDY    61  59  94 CALM      30.08R
LONG PRAIRIE   FAIR      61  59  94 NW6       30.08R
LITTLE FALLS   CLOUDY    61  57  88 CALM      30.07R
LITCHFIELD     CLOUDY    63  63 100 N6        30.04R
BUFFALO        CLOUDY    62  58  88 NE8       30.04R
MAPLE LAKE     CLOUDY    62  60  93 N7        30.05R
HUTCHINSON     CLOUDY    64  63  94 N6        30.04R
$$
MNZ037-044-045-052-053-281300-
   East Central Minnesota

CITY           SKY/WX    TMP DP  RH WIND       PRES   REMARKS
PRINCETON        N/A     61  57  88 N7        30.05R
MORA           CLOUDY    55  54  94 NE3       30.06R
CAMBRIDGE      CLOUDY    63  55  77 N3        30.02R
RUSH CITY      LGT RAIN  59  57  94 NE6       30.04R
MOOSE LAKE     CLOUDY    55  54  94 NE3       30.05R
HINCKLEY       FAIR      59  57  94 N6        30.05R
CLOQUET        SUNNY     59  54  82 NE5       30.07S
MCGREGOR       CLOUDY    57  55  94 NE3       30.08S
$$
MNZ071>073-080-081-089-090-097-098-281300-
   Southwest Minnesota

CITY           SKY/WX    TMP DP  RH WIND       PRES   REMARKS
MONTEVIDEO     CLOUDY    61  61 100 NE5       30.08R
GRANITE FALLS  CLOUDY    64  63  96 N3        30.07R
CANBY          CLOUDY    63  61  91 W7        30.08R
MARSHALL       CLOUDY    61  60  97 NW7       30.06R
REDWOOD FALLS  CLOUDY    63  61  93 N6        30.04R
OLIVIA         CLOUDY    61  59  94 N3        30.04R
PIPESTONE      CLEAR     61  57  88 N3        30.06R
WINDOM         CLOUDY    63  61  94 N8        30.03S
WORTHINGTON    MOCLDY    59  58  96 N6        30.05R
JACKSON        CLOUDY    63  61  94 NE7       30.03S
TRACY          CLOUDY    61  60  97 NW5       30.05R
SLAYTON        MOCLDY    58  58  97 NW5       30.06R
$$
MNZ065>067-074>077-082>085-091>093-281300-
   South Central Minnesota

CITY           SKY/WX    TMP DP  RH WIND       PRES   REMARKS
MANKATO        CLOUDY    64  59  82 N9        30.01R
NEW ULM        CLOUDY    64  63  94 NE7       30.02R
ST JAMES       CLOUDY    61  59  94 CALM      30.02S
FAIRMONT       CLOUDY    64  57  77 N8        30.01R
GLENCOE        CLOUDY    65  64  97 N6        30.02R
FARIBAULT      CLOUDY    66  63  88 N5        30.00R
OWATONNA       CLOUDY    66  63  88 N9        29.99R
WASECA         CLOUDY    63  61  94 N6        30.01R
ALBERT LEA     CLOUDY    66  64  94 N6        29.99R
$$
MNZ078>079-086>088-094>096-281300-
   Southeast Minnesota

CITY           SKY/WX    TMP DP  RH WIND       PRES   REMARKS
ROCHESTER      CLOUDY    66  65  96 N12       29.98R
6HR MIN TEMP:  66; 6HR MAX TEMP:  67; 6HR PCP: TRACE;

RED WING       CLOUDY    66  63  88 NE7       29.96S
STANTON        CLOUDY    66  63  88 VRB8      29.98R
DODGE CENTER   DRIZZLE   64  63  94 N8        29.98S
WINONA         CLOUDY    70  64  83 N7        29.94S
AUSTIN         CLOUDY    64  63  94 N6        29.97R
PRESTON        CLOUDY    65  64  95 N8        29.95R FOG
$$
ABBREVIATIONS USED IN REMARKS
   TC - TEMPERATURES IN CELSIUS
  WCI - WIND CHILL INDEX
   HX - HEAT INDEX
  VSB - VISIBILITY
$$



USA.gov is the U.S. government's official web portal to all federal, state and local government web resources and services.